カタログに戻る

YAOGAN-34 02

運用中軍事LEO
NORAD 52084·PAYLOAD·🇨🇳 China

打ち上げ Mar 17, 2022 から Jiuquan Satellite Launch Center

Loading…

次のパス (今後24時間)

TLE

最新Source: Space-Track

元期: Sep 14, 2026, 22:57 UTC

1 52084U 22027A   26257.95693067 -.00000088  00000-0  39654-5 0  9998
2 52084  63.3972 330.4821 0059791 354.9412   5.1003 13.45440273220995

AllMySatでYAOGAN-34 02をリアルタイム追跡

Download on the App Store